User: anonymous   Login
Location: Fremont
(37.5480°N, 121.9880°W)
Time: 20:12:21
(UTC-08:00)
Language:

Cosmos 1766 - Orbit

View from above orbital plane
View from above orbital plane
View from above satellite
View from above satellite

Ground track
Ground track

The orbit data is extracted from the following two-line orbital elements,

1 16881U 86055A   15026.93056824  .00002535  00000-0  16632-3 0   705
2 16881 082.5105 155.5695 0013601 167.4028 192.7543 15.07192826549888
Epoch (UTC): 26 January 2015 22:20:01
Eccentricity: 0.0013601
inclination: 82.5105°
perigee height: 535 km
apogee height: 554 km
right ascension of ascending node: 155.5695°
argument of perigee: 167.4028°
revolutions per day: 15.07192826
mean anomaly at epoch: 192.7543°
orbit number at epoch: 54988

The dashed part of the orbit path shows where the satellite is in the earth's shadow,  

DLR